TimeAKDT,TemperatureF,Dew PointF,Humidity,Sea Level PressureIn,VisibilityMPH,Wind Direction,Wind SpeedMPH,Gust SpeedMPH,PrecipitationIn,Events,Conditions,WindDirDegrees,DateUTC
12:53 AM,39.9,28.9,65,29.96,10.0,Calm,Calm,-,N/A,,Mostly Cloudy,0,2012-10-04 08:53:00
1:53 AM,39.0,30.0,70,29.95,10.0,Calm,Calm,-,N/A,,Mostly Cloudy,0,2012-10-04 09:53:00
2:53 AM,37.9,28.9,70,29.93,10.0,NE,3.5,-,N/A,,Mostly Cloudy,40,2012-10-04 10:53:00
3:53 AM,37.0,30.9,79,29.93,10.0,North,4.6,-,N/A,,Mostly Cloudy,360,2012-10-04 11:53:00
4:53 AM,39.0,30.0,70,29.89,10.0,NE,4.6,-,N/A,,Mostly Cloudy,40,2012-10-04 12:53:00
5:53 AM,41.0,30.0,65,29.89,10.0,North,3.5,-,N/A,,Mostly Cloudy,360,2012-10-04 13:53:00
6:53 AM,37.9,28.9,70,29.88,10.0,Calm,Calm,-,N/A,,Mostly Cloudy,0,2012-10-04 14:53:00
7:53 AM,39.0,30.9,73,29.87,10.0,NE,4.6,-,N/A,,Overcast,40,2012-10-04 15:53:00
8:53 AM,41.0,30.9,67,29.87,10.0,NNE,4.6,-,N/A,,Mostly Cloudy,30,2012-10-04 16:53:00
9:53 AM,43.0,33.1,68,29.87,10.0,NE,3.5,-,N/A,,Mostly Cloudy,50,2012-10-04 17:53:00
10:53 AM,46.9,35.1,63,29.88,10.0,Calm,Calm,-,N/A,,Mostly Cloudy,0,2012-10-04 18:53:00
11:53 AM,48.9,35.1,59,29.90,10.0,NNE,3.5,-,N/A,,Overcast,20,2012-10-04 19:53:00
12:53 PM,50.0,37.0,61,29.90,10.0,NE,4.6,-,0.00,Rain,Light Rain,40,2012-10-04 20:53:00
1:53 PM,54.0,37.0,53,29.90,10.0,Calm,Calm,-,0.00,,Mostly Cloudy,0,2012-10-04 21:53:00
2:53 PM,54.0,37.9,55,29.90,10.0,Calm,Calm,-,N/A,,Mostly Cloudy,0,2012-10-04 22:53:00
3:53 PM,60.1,36.0,41,29.88,10.0,NNE,4.6,-,N/A,,Mostly Cloudy,20,2012-10-04 23:53:00
4:53 PM,57.9,37.9,47,29.88,10.0,NNE,3.5,-,N/A,,Mostly Cloudy,20,2012-10-05 00:53:00
5:53 PM,57.0,37.9,49,29.88,10.0,Calm,Calm,-,N/A,,Mostly Cloudy,0,2012-10-05 01:53:00
6:53 PM,54.0,37.9,55,29.88,10.0,Calm,Calm,-,N/A,,Mostly Cloudy,0,2012-10-05 02:53:00
7:53 PM,46.9,37.0,68,29.89,10.0,Calm,Calm,-,N/A,,Mostly Cloudy,0,2012-10-05 03:53:00
8:53 PM,45.0,36.0,71,29.90,10.0,Calm,Calm,-,N/A,,Mostly Cloudy,0,2012-10-05 04:53:00
9:53 PM,43.0,36.0,76,29.92,10.0,Calm,Calm,-,N/A,,Scattered Clouds,0,2012-10-05 05:53:00
10:53 PM,39.9,35.1,83,29.94,10.0,NNE,4.6,-,N/A,,Scattered Clouds,30,2012-10-05 06:53:00
11:53 PM,37.9,34.0,86,29.95,10.0,Calm,Calm,-,N/A,,Scattered Clouds,0,2012-10-05 07:53:00